TimeCDT,TemperatureF,Dew PointF,Humidity,Sea Level PressureIn,VisibilityMPH,Wind Direction,Wind SpeedMPH,Gust SpeedMPH,PrecipitationIn,Events,Conditions,WindDirDegrees,DateUTC
12:15 AM,61.9,59.9,93,30.07,7.0,SSE,4.6,-,N/A,,Clear,160,2013-08-20 05:15:00
12:35 AM,61.7,59.9,94,30.07,5.0,SSE,4.6,-,N/A,,Clear,160,2013-08-20 05:35:00
12:55 AM,61.7,59.7,93,30.08,5.0,SSE,5.8,-,N/A,,Clear,160,2013-08-20 05:55:00
1:15 AM,61.5,59.4,93,30.07,5.0,Calm,Calm,-,N/A,,Clear,0,2013-08-20 06:15:00
1:35 AM,60.8,59.0,94,30.07,5.0,Calm,Calm,-,N/A,,Clear,0,2013-08-20 06:35:00
1:55 AM,59.9,58.1,94,30.07,4.0,Calm,Calm,-,N/A,,Clear,0,2013-08-20 06:55:00
2:15 AM,59.9,58.1,94,30.07,4.0,SSE,4.6,-,N/A,,Clear,150,2013-08-20 07:15:00
2:35 AM,59.9,58.3,94,30.06,4.0,SSE,5.8,-,N/A,,Clear,160,2013-08-20 07:35:00
2:55 AM,59.9,58.3,94,30.07,4.0,SSE,3.5,-,N/A,,Clear,150,2013-08-20 07:55:00
3:15 AM,59.5,58.1,95,30.07,4.0,South,3.5,-,N/A,,Clear,170,2013-08-20 08:15:00
3:35 AM,59.5,58.1,95,30.07,4.0,SSE,3.5,-,N/A,,Clear,160,2013-08-20 08:35:00
3:55 AM,59.4,57.9,95,30.07,4.0,SSE,3.5,-,N/A,,Clear,150,2013-08-20 08:55:00
4:15 AM,59.4,57.7,94,30.07,4.0,SSE,3.5,-,N/A,,Clear,160,2013-08-20 09:15:00
4:35 AM,58.1,56.3,94,30.07,4.0,Calm,Calm,-,N/A,,Clear,0,2013-08-20 09:35:00
4:55 AM,57.6,55.6,93,30.08,4.0,Calm,Calm,-,N/A,,Clear,0,2013-08-20 09:55:00
5:15 AM,58.3,56.8,95,30.09,3.0,SSE,3.5,-,N/A,,Clear,150,2013-08-20 10:15:00
5:35 AM,58.3,56.8,95,30.09,3.0,SSE,5.8,-,N/A,,Clear,160,2013-08-20 10:35:00
5:55 AM,58.3,56.8,95,30.10,3.0,SSE,3.5,-,N/A,,Clear,150,2013-08-20 10:55:00
6:15 AM,58.3,56.8,95,30.10,1.8,Calm,Calm,-,N/A,,Mist,0,2013-08-20 11:15:00
6:35 AM,58.1,56.7,95,30.11,2.0,SSE,3.5,-,N/A,,Clear,150,2013-08-20 11:35:00
6:55 AM,60.1,58.6,95,30.11,1.8,SE,3.5,-,N/A,,Mist,140,2013-08-20 11:55:00
7:15 AM,61.9,60.3,94,30.11,2.0,Calm,Calm,-,N/A,,Clear,0,2013-08-20 12:15:00
7:35 AM,64.2,62.1,93,30.11,3.0,Calm,Calm,-,N/A,,Clear,0,2013-08-20 12:35:00
7:55 AM,66.6,63.9,91,30.12,5.0,South,3.5,-,N/A,,Clear,170,2013-08-20 12:55:00
8:15 AM,68.5,65.3,89,30.12,5.0,South,4.6,-,N/A,,Clear,190,2013-08-20 13:15:00
8:35 AM,70.3,65.5,85,30.12,7.0,South,4.6,-,N/A,,Clear,190,2013-08-20 13:35:00
8:55 AM,72.1,64.9,78,30.13,10.0,SSW,4.6,-,N/A,,Scattered Clouds,210,2013-08-20 13:55:00
9:15 AM,73.4,65.5,76,30.13,10.0,SSW,5.8,-,N/A,,Scattered Clouds,200,2013-08-20 14:15:00
9:35 AM,75.2,64.8,70,30.13,10.0,SSW,6.9,-,N/A,,Clear,210,2013-08-20 14:35:00
9:55 AM,75.9,64.4,67,30.13,10.0,SSW,5.8,-,N/A,,Clear,200,2013-08-20 14:55:00
10:15 AM,77.0,64.8,66,30.12,10.0,SSW,6.9,-,N/A,,Clear,210,2013-08-20 15:15:00
10:35 AM,78.8,65.8,64,30.12,10.0,South,8.1,-,N/A,,Clear,190,2013-08-20 15:35:00
10:55 AM,76.8,64.9,67,30.12,10.0,SSW,5.8,-,N/A,,Clear,200,2013-08-20 15:55:00
11:15 AM,77.0,66.4,70,30.12,10.0,South,6.9,-,N/A,,Clear,190,2013-08-20 16:15:00
11:35 AM,79.5,66.2,64,30.12,10.0,SSW,8.1,-,N/A,,Clear,210,2013-08-20 16:35:00
11:55 AM,81.3,66.7,61,30.11,10.0,SSW,8.1,-,N/A,,Clear,200,2013-08-20 16:55:00
12:15 PM,82.6,66.9,59,30.11,10.0,South,10.4,-,N/A,,Clear,190,2013-08-20 17:15:00
12:35 PM,82.9,66.7,58,30.10,10.0,SSW,8.1,-,N/A,,Clear,200,2013-08-20 17:35:00
12:55 PM,82.6,65.3,56,30.09,10.0,South,10.4,16.1,N/A,,Scattered Clouds,180,2013-08-20 17:55:00
1:15 PM,82.9,64.9,54,30.09,10.0,SW,8.1,-,N/A,,Scattered Clouds,220,2013-08-20 18:15:00
1:35 PM,83.5,64.6,53,30.09,10.0,SW,10.4,-,N/A,,Scattered Clouds,220,2013-08-20 18:35:00
1:55 PM,82.2,64.4,55,30.09,10.0,SSW,8.1,-,N/A,,Scattered Clouds,200,2013-08-20 18:55:00
2:15 PM,83.7,65.1,53,30.09,10.0,South,9.2,-,N/A,,Clear,190,2013-08-20 19:15:00
2:35 PM,83.5,64.4,52,30.08,10.0,South,10.4,-,N/A,,Clear,190,2013-08-20 19:35:00
2:55 PM,81.7,64.2,55,30.08,10.0,South,8.1,-,N/A,,Clear,190,2013-08-20 19:55:00
3:15 PM,82.4,64.4,54,30.07,10.0,South,10.4,-,N/A,,Clear,190,2013-08-20 20:15:00
3:35 PM,83.7,63.7,51,30.07,10.0,SSW,10.4,16.1,N/A,,Clear,210,2013-08-20 20:35:00
3:55 PM,84.4,64.0,50,30.06,10.0,SSW,9.2,-,N/A,,Clear,210,2013-08-20 20:55:00
4:15 PM,82.4,64.0,54,30.06,10.0,South,6.9,-,N/A,,Clear,190,2013-08-20 21:15:00
4:35 PM,82.0,63.5,53,30.06,10.0,SSW,8.1,-,N/A,,Clear,200,2013-08-20 21:35:00
4:55 PM,81.3,63.5,55,30.06,10.0,SSW,5.8,-,N/A,,Clear,200,2013-08-20 21:55:00
5:15 PM,80.6,64.6,58,30.06,10.0,South,5.8,-,N/A,,Clear,190,2013-08-20 22:15:00
5:35 PM,80.2,65.1,60,30.06,10.0,South,5.8,-,N/A,,Clear,190,2013-08-20 22:35:00
5:55 PM,80.6,65.1,59,30.05,10.0,South,4.6,-,N/A,,Clear,190,2013-08-20 22:55:00
6:15 PM,80.6,65.5,60,30.05,10.0,South,4.6,-,N/A,,Clear,190,2013-08-20 23:15:00
6:35 PM,80.1,65.3,61,30.05,10.0,South,5.8,-,N/A,,Clear,180,2013-08-20 23:35:00
6:55 PM,79.0,65.7,64,30.05,10.0,South,3.5,-,N/A,,Clear,180,2013-08-20 23:55:00
7:15 PM,76.5,66.2,70,30.05,10.0,South,4.6,-,N/A,,Clear,180,2013-08-21 00:15:00
7:35 PM,73.8,66.6,78,30.05,10.0,South,4.6,-,N/A,,Clear,170,2013-08-21 00:35:00
7:55 PM,71.8,66.2,83,30.06,7.0,SSE,4.6,-,N/A,,Clear,160,2013-08-21 00:55:00
8:15 PM,70.7,65.5,83,30.06,10.0,SSE,5.8,-,N/A,,Clear,160,2013-08-21 01:15:00
8:35 PM,69.4,65.1,86,30.06,7.0,SSE,4.6,-,N/A,,Clear,160,2013-08-21 01:35:00
8:55 PM,68.7,64.8,87,30.06,10.0,SSE,5.8,-,N/A,,Clear,160,2013-08-21 01:55:00
9:15 PM,67.6,64.4,89,30.06,7.0,SSE,5.8,-,N/A,,Clear,160,2013-08-21 02:15:00
9:35 PM,66.9,63.5,89,30.07,7.0,SSE,5.8,-,N/A,,Clear,160,2013-08-21 02:35:00
9:55 PM,67.1,63.5,88,30.07,7.0,SSE,5.8,-,N/A,,Clear,160,2013-08-21 02:55:00
10:15 PM,66.6,63.1,89,30.07,10.0,South,4.6,-,N/A,,Clear,170,2013-08-21 03:15:00
10:35 PM,65.7,62.8,90,30.07,7.0,SSE,5.8,-,N/A,,Clear,160,2013-08-21 03:35:00
10:55 PM,65.3,62.6,91,30.08,7.0,South,4.6,-,N/A,,Clear,170,2013-08-21 03:55:00
11:15 PM,65.3,62.6,91,30.07,7.0,SSE,6.9,-,N/A,,Clear,160,2013-08-21 04:15:00
11:35 PM,64.8,62.1,91,30.08,7.0,South,3.5,-,N/A,,Clear,170,2013-08-21 04:35:00
11:55 PM,63.7,61.5,93,30.08,5.0,South,4.6,-,N/A,,Clear,170,2013-08-21 04:55:00